• In Schweiz
  • Länderverzeichnis
  • Für 7 Tage
  • Wassertemperatur
  • Satellitenkarten
  • Wetterkarte
  • Widgets
  • user-avatar
    Anmelden

    Stündliche Wetter Kinshasa

    Heute, 24 September, Montag

    Zeit Temperatur Niederschläge Wind Luftdruck Luftfeuchtigkeit
    00:00 +22°C° 0.4 mm 1 m/S 707 mmHg 98%
    01:00 +22°C° 0.4 mm 1 m/S 707 mmHg 98%
    02:00 +22°C° 0.1 mm 1 m/S 707 mmHg 98%
    03:00 +22°C° 0.1 mm 1 m/S 707 mmHg 98%
    04:00 +22°C° 0.1 mm 1 m/S 707 mmHg 98%
    05:00 +22°C° 0.1 mm 1 m/S 707 mmHg 98%
    06:00 +22°C° 0.1 mm 1 m/S 707 mmHg 98%
    07:00 +22°C° 0.1 mm 1 m/S 708 mmHg 98%
    08:00 +24°C° 0.5 mm 1 m/S 708 mmHg 95%
    09:00 +25°C° 0.5 mm 1 m/S 709 mmHg 92%
    10:00 +26°C° 0.5 mm 2 m/S 709 mmHg 89%
    11:00 +27°C° 0.8 mm 2 m/S 708 mmHg 85%
    12:00 +27°C° 0.8 mm 2 m/S 708 mmHg 82%
    13:00 +28°C° 0.8 mm 2 m/S 707 mmHg 78%
    14:00 +28°C° 0.1 mm 2 m/S 707 mmHg 76%
    15:00 +28°C° 0.1 mm 1 m/S 706 mmHg 75%
    16:00 +29°C° 0.1 mm 1 m/S 706 mmHg 73%
    17:00 +27°C° 0 mm 1 m/S 706 mmHg 79%
    18:00 +26°C° 0 mm 1 m/S 706 mmHg 84%
    19:00 +24°C° 0 mm 1 m/S 706 mmHg 89%
    20:00 +24°C° 0 mm 1 m/S 707 mmHg 89%
    21:00 +23°C° 0 mm 1 m/S 707 mmHg 90%
    22:00 +23°C° 0 mm 1 m/S 707 mmHg 90%
    23:00 +23°C° 0 mm 1 m/S 707 mmHg 91%

    Morgen, 25 September, Dienstag

    Zeit Temperatur Niederschläge Wind Luftdruck Luftfeuchtigkeit
    00:00 +22°C° 0 mm 1 m/S 707 mmHg 91%
    01:00 +22°C° 0 mm 1 m/S 707 mmHg 92%
    02:00 +22°C° 0 mm 1 m/S 707 mmHg 93%
    03:00 +21°C° 0 mm 1 m/S 707 mmHg 94%
    04:00 +21°C° 0 mm 1 m/S 707 mmHg 95%
    05:00 +22°C° 0 mm 1 m/S 707 mmHg 94%
    06:00 +22°C° 0 mm 1 m/S 707 mmHg 92%
    07:00 +23°C° 0 mm 1 m/S 708 mmHg 91%
    08:00 +25°C° 0 mm 1 m/S 708 mmHg 81%
    09:00 +28°C° 0 mm 1 m/S 709 mmHg 72%
    10:00 +30°C° 0 mm 1 m/S 710 mmHg 63%
    11:00 +30°C° 1 mm 1 m/S 709 mmHg 67%
    12:00 +28°C° 1 mm 0 m/S 708 mmHg 70%
    13:00 +28°C° 1 mm 0 m/S 707 mmHg 74%
    14:00 +27°C° 2.1 mm 0 m/S 706 mmHg 78%
    15:00 +29°C° 2.1 mm 1 m/S 706 mmHg 82%
    16:00 +28°C° 2.1 mm 1 m/S 705 mmHg 86%
    17:00 +27°C° 0.3 mm 1 m/S 706 mmHg 88%
    18:00 +25°C° 0.3 mm 1 m/S 706 mmHg 90%
    19:00 +22°C° 0.3 mm 0 m/S 707 mmHg 91%
    20:00 +23°C° 0 mm 1 m/S 707 mmHg 92%
    21:00 +23°C° 0 mm 1 m/S 708 mmHg 93%
    22:00 +23°C° 0 mm 1 m/S 708 mmHg 94%
    23:00 +22°C° 0 mm 1 m/S 708 mmHg 95%

    übermorgen, 26 September, Mittwoch

    Zeit Temperatur Niederschläge Wind Luftdruck Luftfeuchtigkeit
    00:00 +22°C° 0 mm 1 m/S 707 mmHg 96%
    01:00 +22°C° 0 mm 1 m/S 707 mmHg 97%
    02:00 +22°C° 0 mm 1 m/S 706 mmHg 98%
    03:00 +21°C° 0 mm 1 m/S 706 mmHg 98%
    04:00 +21°C° 0 mm 1 m/S 706 mmHg 98%
    05:00 +22°C° 0 mm 1 m/S 707 mmHg 97%
    06:00 +22°C° 0 mm 1 m/S 707 mmHg 96%
    07:00 +23°C° 0 mm 1 m/S 708 mmHg 95%
    08:00 +25°C° 0 mm 1 m/S 708 mmHg 85%
    09:00 +27°C° 0 mm 1 m/S 709 mmHg 76%
    10:00 +30°C° 0 mm 2 m/S 709 mmHg 66%
    11:00 +30°C° 1 mm 1 m/S 708 mmHg 69%
    12:00 +30°C° 1 mm 1 m/S 707 mmHg 72%
    13:00 +30°C° 1 mm 1 m/S 706 mmHg 75%
    14:00 +30°C° 1.2 mm 1 m/S 706 mmHg 75%
    15:00 +30°C° 1.2 mm 1 m/S 705 mmHg 75%
    16:00 +28°C° 1.2 mm 0 m/S 705 mmHg 75%
    17:00 +28°C° 0.7 mm 1 m/S 706 mmHg 80%
    18:00 +26°C° 0.7 mm 1 m/S 706 mmHg 86%
    19:00 +24°C° 0.7 mm 1 m/S 706 mmHg 92%
    20:00 +24°C° 0.4 mm 1 m/S 707 mmHg 93%
    21:00 +23°C° 0.4 mm 1 m/S 707 mmHg 94%
    22:00 +23°C° 0.4 mm 1 m/S 707 mmHg 95%
    23:00 +23°C° 0.2 mm 1 m/S 707 mmHg 96%

    27 September, Donnerstag

    Zeit Temperatur Niederschläge Wind Luftdruck Luftfeuchtigkeit
    00:00 +22°C° 0.2 mm 1 m/S 706 mmHg 96%
    01:00 +22°C° 0.2 mm 1 m/S 706 mmHg 97%
    02:00 +22°C° 0.1 mm 1 m/S 706 mmHg 97%
    03:00 +22°C° 0.1 mm 1 m/S 706 mmHg 97%
    04:00 +22°C° 0.1 mm 1 m/S 706 mmHg 98%
    05:00 +22°C° 0.1 mm 1 m/S 707 mmHg 97%
    06:00 +22°C° 0.1 mm 1 m/S 707 mmHg 96%
    07:00 +23°C° 0.1 mm 1 m/S 707 mmHg 96%
    08:00 +25°C° 0.1 mm 1 m/S 708 mmHg 89%
    09:00 +26°C° 0.1 mm 1 m/S 708 mmHg 81%
    10:00 +28°C° 0.1 mm 1 m/S 709 mmHg 74%
    11:00 +29°C° 0.7 mm 1 m/S 708 mmHg 75%
    12:00 +29°C° 0.7 mm 1 m/S 707 mmHg 75%
    13:00 +30°C° 0.7 mm 1 m/S 706 mmHg 76%
    14:00 +30°C° 0.6 mm 1 m/S 706 mmHg 77%
    15:00 +30°C° 0.6 mm 1 m/S 705 mmHg 77%
    16:00 +29°C° 0.6 mm 1 m/S 705 mmHg 78%
    17:00 +28°C° 0.7 mm 1 m/S 706 mmHg 83%
    18:00 +26°C° 0.7 mm 1 m/S 706 mmHg 88%
    19:00 +24°C° 0.7 mm 1 m/S 706 mmHg 93%
    20:00 +24°C° 0 mm 1 m/S 707 mmHg 94%
    21:00 +24°C° 0 mm 1 m/S 707 mmHg 95%
    22:00 +23°C° 0 mm 1 m/S 707 mmHg 95%
    23:00 +23°C° 0.1 mm 1 m/S 706 mmHg 96%

    28 September, Freitag

    Zeit Temperatur Niederschläge Wind Luftdruck Luftfeuchtigkeit
    00:00 +23°C° 0.1 mm 1 m/S 706 mmHg 96%
    01:00 +22°C° 0.1 mm 1 m/S 705 mmHg 96%
    02:00 +22°C° 0 mm 1 m/S 705 mmHg 96%
    03:00 +22°C° 0 mm 1 m/S 705 mmHg 97%
    04:00 +22°C° 0 mm 1 m/S 705 mmHg 97%
    05:00 +22°C° 0 mm 1 m/S 706 mmHg 97%
    06:00 +22°C° 0 mm 1 m/S 707 mmHg 96%
    07:00 +23°C° 0 mm 1 m/S 707 mmHg 96%
    08:00 +24°C° 0 mm 1 m/S 708 mmHg 89%
    09:00 +26°C° 0 mm 1 m/S 708 mmHg 83%
    10:00 +27°C° 0 mm 1 m/S 708 mmHg 77%
    11:00 +29°C° 0.4 mm 1 m/S 708 mmHg 72%
    12:00 +30°C° 0.4 mm 1 m/S 707 mmHg 68%
    13:00 +31°C° 0.4 mm 1 m/S 706 mmHg 63%
    14:00 +30°C° 0.8 mm 1 m/S 706 mmHg 70%
    15:00 +29°C° 0.8 mm 1 m/S 705 mmHg 77%
    16:00 +29°C° 0.8 mm 1 m/S 705 mmHg 84%
    17:00 +27°C° 0.1 mm 1 m/S 705 mmHg 87%
    18:00 +26°C° 0.1 mm 1 m/S 706 mmHg 89%
    19:00 +25°C° 0.1 mm 1 m/S 706 mmHg 92%
    20:00 +24°C° 0 mm 1 m/S 706 mmHg 93%
    21:00 +24°C° 0 mm 1 m/S 706 mmHg 93%
    22:00 +23°C° 0 mm 1 m/S 706 mmHg 94%
    23:00 +23°C° 0.5 mm 1 m/S 706 mmHg 95%

    29 September, Samstag

    Zeit Temperatur Niederschläge Wind Luftdruck Luftfeuchtigkeit
    00:00 +21°C° 0.5 mm 0 m/S 706 mmHg 96%
    01:00 +21°C° 0.5 mm 0 m/S 706 mmHg 97%
    02:00 +20°C° 0.8 mm 0 m/S 706 mmHg 97%
    03:00 +20°C° 0.8 mm 0 m/S 706 mmHg 98%
    04:00 +20°C° 0.8 mm 0 m/S 706 mmHg 98%
    05:00 +20°C° 0.1 mm 0 m/S 706 mmHg 98%
    06:00 +21°C° 0.1 mm 0 m/S 707 mmHg 97%
    07:00 +23°C° 0.1 mm 1 m/S 708 mmHg 97%
    08:00 +24°C° 0.3 mm 1 m/S 708 mmHg 94%
    09:00 +26°C° 0.3 mm 1 m/S 708 mmHg 90%
    10:00 +27°C° 0.3 mm 1 m/S 708 mmHg 87%
    11:00 +28°C° 0.6 mm 1 m/S 707 mmHg 82%
    12:00 +29°C° 0.6 mm 1 m/S 707 mmHg 78%
    13:00 +29°C° 0.6 mm 1 m/S 706 mmHg 73%
    14:00 +29°C° 0.2 mm 1 m/S 706 mmHg 74%
    15:00 +29°C° 0.2 mm 1 m/S 705 mmHg 75%
    16:00 +29°C° 0.2 mm 1 m/S 705 mmHg 76%
    17:00 +28°C° 0.1 mm 1 m/S 706 mmHg 82%
    18:00 +26°C° 0.1 mm 1 m/S 706 mmHg 87%
    19:00 +24°C° 0.1 mm 1 m/S 706 mmHg 92%
    20:00 +24°C° 0 mm 1 m/S 706 mmHg 94%
    21:00 +24°C° 0 mm 1 m/S 706 mmHg 95%
    22:00 +23°C° 0 mm 1 m/S 706 mmHg 97%
    23:00 +23°C° 0 mm 1 m/S 706 mmHg 97%
    Mehr zeigen